When you browse on this site, cookies collect data to enhance your experience and personalize the content and advertising you see.
Visit our Privacy Policy to learn more. By continuing to use the site, you agree to this use of cookies and data.
  • In Portugal
  • List of Countries
  • For 7 days
  • Water Temperature
  • Weather Map
  • Weather Widgets
  • user-avatar
    Login

    Hourly Weather Asadabad

    Today, 4 June, Thursday

    Time Temperature Precipitation Wind Pressure Humidity
    00:00 +21°C° 0 mm 1 mps 656 mmHg 64%
    01:00 +21°C° 0 mm 1 mps 655 mmHg 63%
    02:00 +21°C° 0 mm 1 mps 655 mmHg 63%
    03:00 +21°C° 0 mm 1 mps 655 mmHg 62%
    04:00 +20°C° 0 mm 1 mps 655 mmHg 62%
    05:00 +20°C° 0 mm 1 mps 654 mmHg 62%
    06:00 +20°C° 0 mm 0 mps 655 mmHg 56%
    07:00 +21°C° 0 mm 0 mps 656 mmHg 50%
    08:00 +23°C° 0 mm 0 mps 656 mmHg 44%
    09:00 +26°C° 0 mm 1 mps 656 mmHg 42%
    10:00 +27°C° 0 mm 2 mps 656 mmHg 41%
    11:00 +28°C° 0 mm 2 mps 657 mmHg 41%
    12:00 +28°C° 0.1 mm 2 mps 656 mmHg 40%
    13:00 +29°C° 0.1 mm 2 mps 656 mmHg 39%
    14:00 +29°C° 0.1 mm 2 mps 656 mmHg 38%
    15:00 +29°C° 0.2 mm 2 mps 656 mmHg 38%
    16:00 +29°C° 0.2 mm 2 mps 655 mmHg 38%
    17:00 +29°C° 0.2 mm 2 mps 655 mmHg 38%
    18:00 +28°C° 0.2 mm 1 mps 655 mmHg 45%
    19:00 +27°C° 0.2 mm 1 mps 655 mmHg 51%
    20:00 +26°C° 0.2 mm 1 mps 655 mmHg 58%
    21:00 +25°C° 0.4 mm 1 mps 655 mmHg 59%
    22:00 +24°C° 0.4 mm 1 mps 655 mmHg 61%
    23:00 +24°C° 0.4 mm 1 mps 655 mmHg 62%

    Tomorrow, 5 June, Friday

    Time Temperature Precipitation Wind Pressure Humidity
    00:00 +23°C° 0.1 mm 1 mps 655 mmHg 62%
    01:00 +23°C° 0.1 mm 1 mps 655 mmHg 62%
    02:00 +23°C° 0.1 mm 1 mps 655 mmHg 63%
    03:00 +22°C° 0.1 mm 1 mps 655 mmHg 62%
    04:00 +22°C° 0.1 mm 1 mps 654 mmHg 61%
    05:00 +22°C° 0.1 mm 1 mps 654 mmHg 60%
    06:00 +23°C° 0 mm 1 mps 655 mmHg 54%
    07:00 +25°C° 0 mm 1 mps 656 mmHg 48%
    08:00 +26°C° 0 mm 1 mps 656 mmHg 43%
    09:00 +27°C° 0 mm 1 mps 656 mmHg 42%
    10:00 +28°C° 0 mm 2 mps 656 mmHg 40%
    11:00 +29°C° 0 mm 2 mps 656 mmHg 39%
    12:00 +30°C° 0.1 mm 2 mps 656 mmHg 38%
    13:00 +30°C° 0.1 mm 2 mps 656 mmHg 37%
    14:00 +31°C° 0.1 mm 3 mps 655 mmHg 35%
    15:00 +31°C° 0.1 mm 2 mps 655 mmHg 35%
    16:00 +31°C° 0.1 mm 2 mps 655 mmHg 35%
    17:00 +31°C° 0.1 mm 2 mps 655 mmHg 35%
    18:00 +30°C° 0.1 mm 2 mps 654 mmHg 42%
    19:00 +28°C° 0.1 mm 1 mps 654 mmHg 48%
    20:00 +27°C° 0.1 mm 1 mps 654 mmHg 54%
    21:00 +26°C° 0.1 mm 1 mps 655 mmHg 55%
    22:00 +25°C° 0.1 mm 1 mps 655 mmHg 56%
    23:00 +25°C° 0.1 mm 1 mps 655 mmHg 57%

    Day after tomorrow, 6 June, Saturday

    Time Temperature Precipitation Wind Pressure Humidity
    00:00 +24°C° 0 mm 1 mps 655 mmHg 55%
    01:00 +24°C° 0 mm 1 mps 655 mmHg 53%
    02:00 +23°C° 0 mm 2 mps 655 mmHg 51%
    03:00 +23°C° 0 mm 2 mps 655 mmHg 50%
    04:00 +23°C° 0 mm 2 mps 655 mmHg 49%
    05:00 +21°C° 0 mm 2 mps 655 mmHg 48%
    06:00 +24°C° 0 mm 1 mps 655 mmHg 44%
    07:00 +25°C° 0 mm 1 mps 656 mmHg 40%
    08:00 +27°C° 0 mm 1 mps 656 mmHg 36%
    09:00 +28°C° 0 mm 1 mps 657 mmHg 37%
    10:00 +29°C° 0 mm 2 mps 657 mmHg 38%
    11:00 +29°C° 0 mm 3 mps 657 mmHg 40%
    12:00 +30°C° 0 mm 3 mps 656 mmHg 40%
    13:00 +31°C° 0 mm 3 mps 656 mmHg 40%
    14:00 +31°C° 0 mm 3 mps 656 mmHg 39%
    15:00 +31°C° 0.1 mm 3 mps 655 mmHg 41%
    16:00 +31°C° 0.1 mm 3 mps 655 mmHg 42%
    17:00 +30°C° 0.1 mm 3 mps 655 mmHg 44%
    18:00 +29°C° 0.4 mm 2 mps 655 mmHg 50%
    19:00 +28°C° 0.4 mm 2 mps 655 mmHg 57%
    20:00 +26°C° 0.4 mm 1 mps 655 mmHg 63%
    21:00 +26°C° 0.4 mm 1 mps 655 mmHg 63%
    22:00 +25°C° 0.4 mm 1 mps 655 mmHg 63%
    23:00 +25°C° 0.4 mm 1 mps 656 mmHg 64%

    7 June, Sunday

    Time Temperature Precipitation Wind Pressure Humidity
    00:00 +24°C° 0.1 mm 1 mps 656 mmHg 63%
    01:00 +24°C° 0.1 mm 1 mps 655 mmHg 62%
    02:00 +24°C° 0.1 mm 1 mps 655 mmHg 61%
    03:00 +23°C° 0 mm 1 mps 655 mmHg 59%
    04:00 +23°C° 0 mm 1 mps 655 mmHg 57%
    05:00 +22°C° 0 mm 1 mps 655 mmHg 56%
    06:00 +24°C° 0 mm 1 mps 655 mmHg 52%
    07:00 +25°C° 0 mm 1 mps 656 mmHg 48%
    08:00 +26°C° 0 mm 1 mps 656 mmHg 43%
    09:00 +27°C° 0 mm 1 mps 656 mmHg 42%
    10:00 +28°C° 0 mm 2 mps 657 mmHg 41%
    11:00 +30°C° 0 mm 2 mps 657 mmHg 40%
    12:00 +30°C° 0 mm 2 mps 657 mmHg 38%
    13:00 +31°C° 0 mm 2 mps 656 mmHg 36%
    14:00 +33°C° 0 mm 3 mps 656 mmHg 34%
    15:00 +33°C° 0 mm 3 mps 656 mmHg 34%
    16:00 +33°C° 0 mm 3 mps 655 mmHg 33%
    17:00 +33°C° 0 mm 3 mps 655 mmHg 33%
    18:00 +31°C° 0 mm 2 mps 655 mmHg 40%
    19:00 +29°C° 0 mm 2 mps 655 mmHg 47%
    20:00 +27°C° 0 mm 1 mps 654 mmHg 54%
    21:00 +27°C° 0 mm 1 mps 655 mmHg 57%
    22:00 +26°C° 0 mm 1 mps 655 mmHg 60%
    23:00 +25°C° 0 mm 1 mps 655 mmHg 62%

    8 June, Monday

    Time Temperature Precipitation Wind Pressure Humidity
    00:00 +25°C° 0 mm 1 mps 655 mmHg 63%
    01:00 +25°C° 0 mm 1 mps 654 mmHg 63%
    02:00 +24°C° 0 mm 1 mps 654 mmHg 63%
    03:00 +24°C° 0 mm 1 mps 654 mmHg 61%
    04:00 +24°C° 0 mm 1 mps 654 mmHg 59%
    05:00 +23°C° 0 mm 1 mps 654 mmHg 56%
    06:00 +25°C° 0 mm 1 mps 655 mmHg 52%
    07:00 +26°C° 0 mm 1 mps 655 mmHg 48%
    08:00 +26°C° 0 mm 0 mps 656 mmHg 44%
    09:00 +29°C° 0 mm 1 mps 656 mmHg 43%
    10:00 +30°C° 0 mm 2 mps 656 mmHg 42%
    11:00 +31°C° 0 mm 2 mps 656 mmHg 41%
    12:00 +31°C° 0 mm 2 mps 656 mmHg 39%
    13:00 +32°C° 0 mm 2 mps 656 mmHg 37%
    14:00 +34°C° 0 mm 2 mps 656 mmHg 35%
    15:00 +34°C° 0.3 mm 2 mps 655 mmHg 34%
    16:00 +34°C° 0.3 mm 2 mps 655 mmHg 32%
    17:00 +34°C° 0.3 mm 2 mps 655 mmHg 31%
    18:00 +31°C° 0.1 mm 1 mps 655 mmHg 37%
    19:00 +30°C° 0.1 mm 1 mps 655 mmHg 43%
    20:00 +28°C° 0.1 mm 1 mps 655 mmHg 49%
    21:00 +28°C° 0 mm 1 mps 655 mmHg 50%
    22:00 +27°C° 0 mm 1 mps 655 mmHg 50%
    23:00 +27°C° 0 mm 2 mps 655 mmHg 50%

    9 June, Tuesday

    Time Temperature Precipitation Wind Pressure Humidity
    00:00 +26°C° 0 mm 2 mps 655 mmHg 50%
    01:00 +26°C° 0 mm 2 mps 655 mmHg 50%
    02:00 +25°C° 0 mm 2 mps 654 mmHg 49%
    03:00 +25°C° 0 mm 2 mps 654 mmHg 49%
    04:00 +24°C° 0 mm 1 mps 654 mmHg 49%
    05:00 +24°C° 0 mm 1 mps 654 mmHg 48%
    06:00 +26°C° 0 mm 1 mps 655 mmHg 45%
    07:00 +27°C° 0 mm 1 mps 655 mmHg 42%
    08:00 +29°C° 0 mm 1 mps 656 mmHg 39%
    09:00 +30°C° 0 mm 1 mps 656 mmHg 38%
    10:00 +31°C° 0 mm 2 mps 656 mmHg 38%
    11:00 +32°C° 0 mm 2 mps 657 mmHg 37%
    12:00 +34°C° 0.1 mm 3 mps 657 mmHg 34%
    13:00 +34°C° 0.1 mm 3 mps 657 mmHg 31%
    14:00 +35°C° 0.1 mm 3 mps 656 mmHg 28%
    15:00 +35°C° 0 mm 3 mps 656 mmHg 27%
    16:00 +35°C° 0 mm 3 mps 656 mmHg 26%
    17:00 +35°C° 0 mm 3 mps 656 mmHg 25%
    18:00 +33°C° 0 mm 3 mps 656 mmHg 34%
    19:00 +30°C° 0 mm 2 mps 655 mmHg 43%
    20:00 +28°C° 0 mm 2 mps 655 mmHg 52%
    21:00 +27°C° 0 mm 2 mps 655 mmHg 51%
    22:00 +27°C° 0 mm 2 mps 656 mmHg 51%
    23:00 +26°C° 0 mm 2 mps 656 mmHg 50%
    Show more